Location: Newark
(17.9939°S, 31.0481°E)
Time: 02:57:01
(UTC+00:00)

Courier 1B - Pass Details

Date: 20 November 2019
Orbit: 963 x 1209 km, 28.3° (Epoch: 15 December)

Event Time Altitude Azimuth Distance (km) Brightness Sun altitude
Rises 16:53:07 0° 255° (WSW) 3,932 12.7 -9.9°
Reaches altitude 10° 16:56:04 10° 247° (WSW) 3,011 11.7 -10.5°
Maximum altitude 17:02:57 38° 181° (S) 1,722 9.0 -12.0°
Drops below altitude 10° 17:10:06 10° 115° (ESE) 3,137 9.8 -13.5°
Enters shadow 17:11:58 - 109° (ESE) 3,710 10.1 -13.9°
